JD,Date,Time,Lat,Long,"xCO2,w","xCO2,a",EqTemp,Pressure_Equi,SST(TSG),Sal(TSG),"fCO2w,eq","fCO2w,in situ",fCO2a,dfCO2
131.011,5/11/98,0:16:24,34.145,-63.798,345.81,372.67,20.97,1001.28,20.76,36.52,332.42,329.65,358.24,-28.59
131.014,5/11/98,0:20:50,34.151,-63.78,344.36,372.67,20.95,1001.56,20.78,36.51,331.11,328.84,358.24,-29.39
131.018,5/11/98,0:25:20,34.158,-63.761,340.87,372.67,20.98,1001.54,20.8,36.51,327.74,325.37,358.24,-32.86
131.021,5/11/98,0:29:50,34.164,-63.743,346.29,372.67,20.99,1001.61,20.85,36.52,332.95,331.05,358.24,-27.19
131.032,5/11/98,0:46:22,34.188,-63.675,338.75,372.67,21.04,1001.34,20.84,36.5,325.62,323.04,358.24,-35.2
131.035,5/11/98,0:50:50,34.194,-63.657,342.27,372.67,21.01,1001.48,20.79,36.5,329.07,326.18,358.24,-32.06
131.038,5/11/98,0:55:20,34.2,-63.638,342.16,372.67,21.01,1001.29,20.9,36.51,328.84,327.3,358.24,-30.93
131.042,5/11/98,0:59:50,34.206,-63.619,343.07,372.67,21.09,1001.54,20.94,36.53,329.78,327.76,358.24,-30.48
131.053,5/11/98,1:16:24,34.229,-63.55,344.97,371.97,21.06,1001.51,20.88,36.5,331.63,329.24,357.83,-28.59
131.056,5/11/98,1:20:50,34.235,-63.532,351.01,371.97,21.07,1001.72,20.8,36.51,337.55,333.91,357.83,-23.92
131.059,5/11/98,1:25:20,34.24,-63.513,341.96,371.97,20.95,1001.66,20.69,36.51,328.88,325.55,357.83,-32.28
131.062,5/11/98,1:29:50,34.246,-63.495,340.49,371.97,20.86,1001.35,20.62,36.5,327.39,324.2,357.83,-33.63
131.074,5/11/98,1:46:22,34.269,-63.426,339.13,371.97,20.63,1001.52,20.43,36.48,326.23,323.7,357.83,-34.13
131.077,5/11/98,1:50:50,34.275,-63.407,343.58,371.97,20.6,1001.38,20.4,36.45,330.48,327.73,357.83,-30.1
131.08,5/11/98,1:55:20,34.281,-63.389,337.22,371.97,20.61,1001.42,20.37,36.43,324.39,321.18,357.83,-36.65
131.083,5/11/98,1:59:50,34.287,-63.37,339.65,371.97,20.59,1001.51,20.43,36.43,326.74,324.65,357.83,-33.18
131.095,5/11/98,2:16:24,34.31,-63.302,336.98,372.49,20.96,1001.35,20.77,36.47,323.95,321.6,358.21,-36.61
131.098,5/11/98,2:20:50,34.316,-63.283,338.76,372.49,20.96,1001.55,20.74,36.47,325.74,322.96,358.21,-35.25
131.101,5/11/98,2:25:20,34.323,-63.264,343.3,372.49,20.92,1001.42,20.68,36.46,330.1,326.91,358.21,-31.3
131.104,5/11/98,2:29:50,34.329,-63.245,336.24,372.49,20.87,1001.34,20.64,36.47,323.29,320.4,358.21,-37.8
131.116,5/11/98,2:46:22,34.354,-63.176,342.02,372.49,20.7,1001.4,20.52,36.45,328.93,326.54,358.21,-31.66
131.119,5/11/98,2:50:50,34.361,-63.158,340.21,372.49,20.72,1001.35,20.54,36.47,327.17,324.77,358.21,-33.43
131.122,5/11/98,2:55:20,34.368,-63.139,342.41,372.49,20.68,1001.2,20.49,36.46,329.26,326.76,358.21,-31.45
131.125,5/11/98,2:59:50,34.375,-63.121,338.78,372.49,20.68,1001.33,20.5,36.47,325.79,323.53,358.21,-34.68
131.136,5/11/98,3:16:24,34.401,-63.053,340.35,372.04,20.52,1001.14,20.28,36.46,327.34,324.24,357.48,-33.24
131.139,5/11/98,3:20:50,34.407,-63.035,338.51,372.04,20.45,1001.03,20.22,36.47,325.57,322.59,357.48,-34.89
131.143,5/11/98,3:25:20,34.413,-63.016,336.02,372.04,20.52,1001.25,20.55,36.52,323.1,323.38,357.48,-34.1
131.146,5/11/98,3:29:50,34.419,-62.997,339.16,372.04,20.75,1001.21,20.68,36.53,326.04,325.24,357.48,-32.24
131.157,5/11/98,3:46:22,34.442,-62.927,330.39,372.04,21.05,1001.01,20.89,36.5,317.44,315.4,357.48,-42.08
131.16,5/11/98,3:50:50,34.449,-62.908,339.32,372.04,21.09,1000.83,20.99,36.51,325.92,324.5,357.48,-32.97
131.163,5/11/98,3:55:20,34.455,-62.89,335.41,372.04,21.16,1000.73,21.07,36.5,322.09,320.98,357.48,-36.5
131.167,5/11/98,3:59:50,34.461,-62.871,334.39,372.04,21.23,1000.63,21.12,36.51,321.05,319.56,357.48,-37.92
131.178,5/11/98,4:16:24,34.484,-62.803,336.2,372.59,21.55,1000.32,21.33,36.52,322.58,319.8,357.64,-37.83
131.181,5/11/98,4:20:50,34.489,-62.784,338.71,372.59,21.49,1000.44,21.35,36.51,325.03,323.19,357.64,-34.44
131.184,5/11/98,4:25:20,34.495,-62.766,340,372.59,21.53,1000.32,21.38,36.51,326.21,324.18,357.64,-33.45
131.187,5/11/98,4:29:50,34.501,-62.747,336,372.59,21.53,1000.28,21.09,36.51,322.5,316.83,357.64,-40.8
131.199,5/11/98,4:46:22,34.524,-62.679,336.48,372.59,21.17,1000.31,20.87,36.51,323.08,319.23,357.64,-38.41
131.202,5/11/98,4:50:50,34.531,-62.661,335.77,372.59,21.09,1000.25,20.86,36.51,322.38,319.46,357.64,-38.18
131.205,5/11/98,4:55:20,34.537,-62.642,334.6,372.59,21.06,1000.06,20.85,36.5,321.19,318.56,357.64,-39.08
131.208,5/11/98,4:59:50,34.543,-62.624,335.96,372.59,21.07,999.89,20.9,36.5,322.43,320.19,357.64,-37.44
131.22,5/11/98,5:16:24,34.566,-62.557,335.55,372.48,21.4,999.58,20.98,36.51,321.89,316.48,357.07,-40.59
131.223,5/11/98,5:20:50,34.572,-62.539,332.31,372.48,21.42,999.74,21.39,36.52,318.64,318.21,357.07,-38.86
131.226,5/11/98,5:25:20,34.578,-62.522,336.4,372.48,21.6,999.77,21.45,36.52,322.54,320.61,357.07,-36.46
131.229,5/11/98,5:29:50,34.584,-62.504,336.39,372.48,21.65,999.7,21.47,36.51,322.5,320.13,357.07,-36.94
131.241,5/11/98,5:46:22,34.606,-62.439,335.24,372.48,21.71,999.59,21.5,36.51,321.35,318.59,357.07,-38.48
131.244,5/11/98,5:50:50,34.612,-62.421,335.87,372.48,21.7,999.59,21.51,36.5,321.94,319.6,357.07,-37.47
131.247,5/11/98,5:55:20,34.617,-62.403,337.41,372.48,21.7,999.71,21.5,36.51,323.46,320.89,357.07,-36.18
131.25,5/11/98,5:59:50,34.622,-62.385,336.04,372.48,21.68,999.58,21.48,36.51,322.12,319.47,357.07,-37.6
131.261,5/11/98,6:16:24,34.641,-62.32,339.91,372.04,21.69,999.44,21.54,36.51,325.75,323.86,356.5,-32.64
131.264,5/11/98,6:20:50,34.645,-62.303,337.49,372.04,21.71,999.52,21.54,36.51,323.46,321.24,356.5,-35.26
131.268,5/11/98,6:25:20,34.65,-62.285,338.22,372.04,21.75,999.42,21.54,36.51,324.12,321.4,356.5,-35.1
131.271,5/11/98,6:29:50,34.655,-62.268,337.5,372.04,21.74,999.26,21.54,36.51,323.38,320.91,356.5,-35.58
131.282,5/11/98,6:46:22,34.672,-62.202,344.15,372.04,21.78,999.27,21.57,36.52,329.74,326.96,356.5,-29.53
131.285,5/11/98,6:50:50,34.677,-62.184,340.77,372.04,21.72,999.15,21.52,36.5,326.49,323.83,356.5,-32.67
131.288,5/11/98,6:55:20,34.682,-62.167,335.86,372.04,21.68,999.11,21.48,36.51,321.79,319.21,356.5,-37.29
131.292,5/11/98,6:59:50,34.686,-62.149,338.29,372.04,21.66,999.19,21.5,36.52,324.13,322.09,356.5,-34.41
131.303,5/11/98,7:16:24,34.706,-62.085,338.45,372.29,21.71,999.03,21.54,36.5,324.21,322.03,356.61,-34.57
131.306,5/11/98,7:20:50,34.711,-62.068,340.1,372.29,21.72,999.11,21.55,36.5,325.81,323.61,356.61,-33
131.309,5/11/98,7:25:20,34.717,-62.051,338.69,372.29,21.72,999.12,21.55,36.5,324.47,322.33,356.61,-34.27
131.312,5/11/98,7:29:50,34.722,-62.033,340.44,372.29,21.69,999.08,21.55,36.51,326.13,324.39,356.61,-32.22
131.324,5/11/98,7:46:22,34.741,-61.969,340.76,372.29,21.71,999.02,21.55,36.51,326.42,324.34,356.61,-32.26
131.327,5/11/98,7:50:50,34.746,-61.951,337.6,372.29,21.69,999.02,21.54,36.5,323.4,321.4,356.61,-35.21
131.33,5/11/98,7:55:20,34.751,-61.934,337.77,372.29,21.69,999.08,21.54,36.51,323.58,321.61,356.61,-35
131.333,5/11/98,7:59:50,34.756,-61.916,338.22,372.29,21.72,999.05,21.54,36.51,324,321.78,356.61,-34.82
131.345,5/11/98,8:16:24,34.775,-61.85,338.38,372.69,21.68,998.86,21.5,36.49,324.1,321.83,356.96,-35.13
131.348,5/11/98,8:20:50,34.78,-61.833,338.54,372.69,21.65,998.83,21.49,36.51,324.26,322.28,356.96,-34.68
131.351,5/11/98,8:25:20,34.786,-61.815,339.76,372.69,21.66,998.92,21.48,36.5,325.47,323.1,356.96,-33.86
131.354,5/11/98,8:29:50,34.791,-61.797,338.06,372.69,21.66,998.82,21.47,36.49,323.8,321.47,356.96,-35.48
131.366,5/11/98,8:46:22,34.811,-61.731,338.02,372.69,21.62,998.6,21.41,36.49,323.72,320.97,356.96,-35.99
131.369,5/11/98,8:50:50,34.817,-61.713,341.22,372.69,21.54,998.74,21.38,36.51,326.85,324.72,356.96,-32.24
131.372,5/11/98,8:55:20,34.823,-61.694,342.66,372.69,21.54,998.83,21.37,36.5,328.27,325.93,356.96,-31.02
131.375,5/11/98,8:59:50,34.828,-61.676,341.22,372.69,21.56,998.84,21.36,36.51,326.89,324.34,356.96,-32.62
131.386,5/11/98,9:16:24,34.85,-61.607,339.52,371.57,21.56,998.78,21.35,36.51,325.25,322.56,356.08,-33.52
131.389,5/11/98,9:20:50,34.856,-61.588,338.35,371.57,21.51,998.8,21.32,36.51,324.15,321.73,356.08,-34.34
131.393,5/11/98,9:25:20,34.861,-61.569,341.32,371.57,21.49,998.89,21.32,36.52,327.02,324.82,356.08,-31.25
131.396,5/11/98,9:29:50,34.868,-61.55,336.98,371.57,21.51,999.02,21.33,36.51,322.9,320.64,356.08,-35.44
131.407,5/11/98,9:46:22,34.889,-61.48,340.61,371.57,21.54,998.95,21.35,36.48,326.35,323.91,356.08,-32.17
131.41,5/11/98,9:50:50,34.895,-61.46,340.12,371.57,21.54,999.14,21.37,36.48,325.93,323.82,356.08,-32.26
131.413,5/11/98,9:55:20,34.901,-61.441,344.32,371.57,21.55,999.14,21.35,36.47,329.97,327.43,356.08,-28.65
131.417,5/11/98,9:59:50,34.907,-61.422,339.26,371.57,21.53,999.24,21.38,36.48,325.14,323.22,356.08,-32.86
131.428,5/11/98,10:16:24,34.929,-61.351,343.74,371.13,21.61,999.3,21.39,36.51,329.45,326.56,355.75,-29.19
131.431,5/11/98,10:20:50,34.935,-61.332,335.47,371.13,21.58,999.35,21.38,36.51,321.54,319.01,355.75,-36.74
131.434,5/11/98,10:25:20,34.941,-61.313,337.9,371.13,21.58,999.28,21.37,36.51,323.85,321.22,355.75,-34.54
131.437,5/11/98,10:29:50,34.947,-61.294,337.44,371.13,21.56,999.32,21.37,36.52,323.43,320.97,355.75,-34.79
131.449,5/11/98,10:46:22,34.969,-61.224,337.48,371.13,21.53,999.41,21.34,36.53,323.51,321.05,355.75,-34.7
131.452,5/11/98,10:50:50,34.98,-61.212,334.66,371.13,21.54,999.35,21.34,36.51,320.79,318.21,355.75,-37.54
131.455,5/11/98,10:55:20,34.988,-61.196,335.59,371.13,21.51,999.34,21.33,36.51,321.68,319.34,355.75,-36.41
131.458,5/11/98,10:59:50,34.994,-61.177,334.97,371.13,21.52,999.57,21.33,36.52,321.16,318.73,355.75,-37.02
131.47,5/11/98,11:16:24,35.014,-61.106,336.36,371.36,21.44,999.82,21.24,36.53,322.62,319.98,356.34,-36.35
131.473,5/11/98,11:20:50,35.02,-61.087,346.76,371.36,21.46,999.7,21.19,36.53,332.58,329.09,356.34,-27.24
131.476,5/11/98,11:25:20,35.025,-61.068,339.02,371.36,21.38,999.72,21.12,36.54,325.19,321.94,356.34,-34.4
131.479,5/11/98,11:29:50,35.03,-61.049,346.66,371.36,21.27,999.45,20.97,36.52,332.51,328.51,356.34,-27.82
131.491,5/11/98,11:46:22,35.052,-60.981,349.56,371.36,21.24,999.88,21.08,36.5,335.38,333.28,356.34,-23.06
131.494,5/11/98,11:50:50,35.057,-60.962,345,371.36,21.27,999.74,21.11,36.49,330.94,328.91,356.34,-27.43
131.497,5/11/98,11:55:20,35.063,-60.943,337.32,371.36,21.3,999.85,21.15,36.5,323.6,321.7,356.34,-34.64
131.5,5/11/98,11:59:50,35.069,-60.925,352.67,371.36,21.35,999.81,21.2,36.5,338.28,336.17,356.34,-20.17
131.511,5/11/98,12:16:24,35.091,-60.856,345.63,371.74,21.12,999.89,20.76,36.5,331.77,327.04,357.03,-29.99
131.514,5/11/98,12:20:50,35.097,-60.838,350.87,371.74,20.9,999.85,20.55,36.49,336.89,332.22,357.03,-24.81
131.518,5/11/98,12:25:20,35.104,-60.82,348.47,371.74,20.77,999.92,20.55,36.49,334.61,331.7,357.03,-25.33
131.521,5/11/98,12:29:50,35.111,-60.802,353.56,371.74,20.74,1000.15,20.43,36.48,339.63,335.46,357.03,-21.58
131.532,5/11/98,12:46:22,35.135,-60.735,341.3,371.74,20.96,1000.25,20.78,36.5,327.73,325.34,357.03,-31.69
131.535,5/11/98,12:50:50,35.141,-60.717,342.23,371.74,20.97,1000.01,20.77,36.5,328.55,325.96,357.03,-31.07
131.538,5/11/98,12:55:20,35.147,-60.699,351.34,371.74,20.95,1000.26,20.69,36.5,337.42,333.89,357.03,-23.15
131.542,5/11/98,12:59:50,35.154,-60.681,357.63,371.74,20.89,1000.12,21.15,36.49,343.17,346.78,357.03,-10.25
131.553,5/11/98,13:16:24,35.176,-60.616,343.89,371.35,21.35,1000.17,21.18,36.48,329.99,327.76,356.3,-28.53
131.556,5/11/98,13:20:50,35.183,-60.599,341.37,371.35,21.36,999.99,21.21,36.48,327.5,325.53,356.3,-30.76
131.559,5/11/98,13:25:20,35.189,-60.581,343.88,371.35,21.4,1000.09,21.23,36.49,329.92,327.79,356.3,-28.51
131.562,5/11/98,13:29:50,35.195,-60.563,348.64,371.35,21.43,1000.23,21.25,36.49,334.53,332.16,356.3,-24.14
131.574,5/11/98,13:46:22,35.217,-60.498,344.29,371.35,21.53,1000.38,21.34,36.51,330.37,327.95,356.3,-28.34
131.577,5/11/98,13:50:50,35.223,-60.48,344.39,371.35,21.52,1000.32,21.36,36.5,330.44,328.27,356.3,-28.03
131.58,5/11/98,13:55:20,35.229,-60.461,350.08,371.35,21.52,1000.32,21.36,36.5,335.89,333.72,356.3,-22.58
131.583,5/11/98,13:59:50,35.234,-60.443,349.25,371.35,21.53,1000.43,21.37,36.51,335.12,333.05,356.3,-23.25
131.595,5/11/98,14:16:24,35.254,-60.374,347.5,371.61,21.54,1000.43,21.34,36.5,333.46,330.84,356.73,-25.89
131.598,5/11/98,14:20:50,35.258,-60.355,335.33,371.61,21.52,1000.58,21.35,36.49,321.83,319.63,356.73,-37.1
131.601,5/11/98,14:25:20,35.263,-60.336,356.92,371.61,21.52,1000.86,21.34,36.5,342.65,340.27,356.73,-16.46
131.604,5/11/98,14:29:50,35.268,-60.317,344.26,371.61,21.5,1000.76,21.36,36.5,330.45,328.57,356.73,-28.16
131.616,5/11/98,14:46:22,35.286,-60.248,343.35,371.61,21.6,1000.62,21.39,36.51,329.52,326.84,356.73,-29.89
131.619,5/11/98,14:50:50,35.29,-60.229,340.26,371.61,21.58,1000.48,21.43,36.49,326.48,324.56,356.73,-32.17
131.622,5/11/98,14:55:20,35.292,-60.215,340.97,371.61,21.58,1000.64,21.44,36.5,327.22,325.34,356.73,-31.39
131.625,5/11/98,14:59:50,35.29,-60.217,340.26,371.61,21.6,1000.44,21.46,36.5,326.46,324.58,356.73,-32.15
131.636,5/11/98,15:16:24,35.303,-60.173,340.44,371.36,21.6,1000.35,21.44,36.5,326.62,324.51,356.32,-31.81
131.639,5/11/98,15:20:50,35.308,-60.154,344.24,371.36,21.61,1000.33,21.44,36.49,330.25,328.05,356.32,-28.27
131.643,5/11/98,15:25:20,35.312,-60.135,344.94,371.36,21.58,1000.51,21.4,36.49,331,328.7,356.32,-27.62
131.646,5/11/98,15:29:50,35.317,-60.116,337.94,371.36,21.59,1000.42,21.41,36.49,324.26,321.9,356.32,-34.42
131.657,5/11/98,15:46:22,35.334,-60.046,344.78,371.36,21.62,1000.38,21.46,36.48,330.78,328.74,356.32,-27.58
131.66,5/11/98,15:50:50,35.338,-60.027,366.19,371.36,21.62,1000.55,21.47,36.49,351.37,349.24,356.32,-7.09
131.663,5/11/98,15:55:20,35.343,-60.008,345.79,371.36,21.63,1000.73,21.48,36.5,331.85,329.86,356.32,-26.46
131.667,5/11/98,15:59:50,35.347,-59.989,346.18,371.36,21.65,1000.7,21.5,36.48,332.21,330.21,356.32,-26.11
131.678,5/11/98,16:16:24,35.366,-59.918,355.48,371.15,21.67,1000.64,21.48,36.49,341.12,338.57,356.13,-17.56
131.681,5/11/98,16:20:50,35.372,-59.9,355.59,371.15,21.66,1000.81,21.46,36.48,341.29,338.66,356.13,-17.47
131.684,5/11/98,16:25:20,35.377,-59.88,352.42,371.15,21.67,1000.77,21.51,36.49,338.22,336.13,356.13,-20
131.687,5/11/98,16:29:50,35.383,-59.861,348.32,371.15,21.66,1000.82,21.51,36.49,334.3,332.41,356.13,-23.72
131.699,5/11/98,16:46:22,35.404,-59.791,355.48,371.15,21.73,1000.63,21.53,36.49,341.09,338.38,356.13,-17.76
131.702,5/11/98,16:50:50,35.41,-59.773,350.75,371.15,21.76,1000.77,21.56,36.5,336.58,333.91,356.13,-22.22
131.705,5/11/98,16:55:20,35.416,-59.754,353.83,371.15,21.73,1000.65,21.57,36.49,339.49,337.28,356.13,-18.85
131.708,5/11/98,16:59:50,35.422,-59.735,350.9,371.15,21.69,1000.73,21.58,36.49,336.7,335.22,356.13,-20.92
131.72,5/11/98,17:16:24,35.444,-59.665,353.48,371.7,21.78,1000.66,21.63,36.48,339.13,337.07,356.49,-19.41
131.723,5/11/98,17:20:50,35.45,-59.646,351.22,371.7,21.83,1000.45,21.71,36.49,336.85,335.31,356.49,-21.17
131.726,5/11/98,17:25:20,35.456,-59.627,352.88,371.7,21.86,1000.76,21.75,36.49,338.53,336.98,356.49,-19.51
131.729,5/11/98,17:29:50,35.462,-59.609,346.64,371.7,21.93,1000.62,21.77,36.48,332.48,330.4,356.49,-26.09
131.741,5/11/98,17:46:22,35.484,-59.539,345.74,371.7,22.04,1000.64,21.92,36.46,331.55,330,356.49,-26.49
131.744,5/11/98,17:50:50,35.49,-59.52,340.78,371.7,22.1,1000.48,22,36.46,326.7,325.3,356.49,-31.18
131.747,5/11/98,17:55:20,35.497,-59.501,347.17,371.7,22.15,1000.63,22.06,36.45,332.84,331.71,356.49,-24.78
131.75,5/11/98,17:59:50,35.503,-59.481,352.64,371.7,22.19,1000.41,21.99,36.44,338.04,335.46,356.49,-21.03
131.761,5/11/98,18:16:24,35.524,-59.41,345.37,-999.99,22.35,1000.73,22.17,36.45,331.09,328.79,-999.99,-999.99
131.764,5/11/98,18:20:50,35.53,-59.39,354.48,-999.99,22.36,1000.76,22.19,36.45,339.82,337.62,-999.99,-999.99
131.768,5/11/98,18:25:20,35.536,-59.371,361.71,-999.99,22.33,1000.91,22.12,36.44,346.85,343.88,-999.99,-999.99
131.771,5/11/98,18:29:50,35.542,-59.351,350.25,-999.99,22.33,1000.77,22.19,36.43,335.77,333.95,-999.99,-999.99
131.782,5/11/98,18:46:22,35.564,-59.28,349.96,-999.99,21.88,1000.94,21.03,36.45,336.15,325.02,-999.99,-999.99
131.785,5/11/98,18:50:50,35.571,-59.26,359.34,-999.99,21.23,1000.96,20.64,36.45,345.38,337.44,-999.99,-999.99
131.788,5/11/98,18:55:20,35.577,-59.24,347.13,-999.99,20.93,1000.77,20.79,36.45,333.49,331.62,-999.99,-999.99
131.792,5/11/98,18:59:50,35.584,-59.22,343.94,-999.99,21.1,1000.96,20.92,36.44,330.44,328.04,-999.99,-999.99
131.803,5/11/98,19:16:24,35.608,-59.147,353.69,371.48,21.02,1000.63,20.55,36.34,339.87,333.54,357,-23.45
131.806,5/11/98,19:20:50,35.614,-59.128,354.16,371.48,20.98,1000.83,20.93,36.31,340.2,339.66,357,-17.34
131.809,5/11/98,19:25:20,35.619,-59.107,354.44,371.48,21.07,1000.48,20.84,36.34,340.39,337.35,357,-19.64
131.812,5/11/98,19:29:50,35.625,-59.087,348.6,371.48,21.01,1000.56,20.7,36.33,334.88,330.75,357,-26.25
131.824,5/11/98,19:46:22,35.648,-59.012,357.17,371.48,20.83,1000.67,20.78,36.45,343.11,342.53,357,-14.47
131.827,5/11/98,19:50:50,35.654,-58.992,349.24,371.48,21.05,1000.65,20.82,36.46,335.47,332.45,357,-24.55
131.83,5/11/98,19:55:20,35.66,-58.972,345.26,371.48,21.05,1000.6,20.85,36.46,331.62,329.01,357,-27.98
131.833,5/11/98,19:59:50,35.667,-58.952,349.26,371.48,21,1000.81,20.78,36.48,335.56,332.52,357,-24.48
131.845,5/11/98,20:16:24,35.689,-58.879,352.44,371.27,21.01,1000.63,20.84,36.51,338.52,336.28,356.81,-20.53
131.848,5/11/98,20:20:50,35.695,-58.86,355.48,371.27,20.86,1000.56,20.53,36.52,341.58,337.08,356.81,-19.74
131.851,5/11/98,20:25:20,35.701,-58.84,351.32,371.27,20.71,1000.76,20.24,36.53,337.79,331.47,356.81,-25.34
131.854,5/11/98,20:29:50,35.707,-58.82,365.87,371.27,20.47,1000.68,20.19,36.54,351.77,347.74,356.81,-9.07
131.866,5/11/98,20:46:22,35.729,-58.746,350.12,371.27,20.67,1000.62,20.46,36.55,336.48,333.56,356.81,-23.25
131.869,5/11/98,20:50:50,35.735,-58.726,348.29,371.27,20.73,1000.56,20.38,36.54,334.74,330.19,356.81,-26.62
131.872,5/11/98,20:55:20,35.741,-58.706,350.53,371.27,20.63,1000.67,20.32,36.52,336.96,332.83,356.81,-23.99
131.875,5/11/98,20:59:50,35.747,-58.686,360.61,371.27,20.43,1000.59,20.35,36.5,346.61,345.43,356.81,-11.39
131.886,5/11/98,21:16:24,35.769,-58.612,352.08,370.96,20.4,1000.79,19.97,36.45,338.66,332.81,356.77,-23.96
131.889,5/11/98,21:20:50,35.775,-58.592,360.47,370.96,20.29,1000.75,20.29,36.44,346.56,346.63,356.77,-10.14
131.893,5/11/98,21:25:20,35.781,-58.573,355.05,370.96,20.42,1000.53,20.24,36.43,341.29,338.82,356.77,-17.96
131.896,5/11/98,21:29:50,35.786,-58.553,346.9,370.96,20.41,1000.89,20.14,36.42,333.63,329.92,356.77,-26.85
131.907,5/11/98,21:46:22,35.809,-58.481,328.3,370.96,20.21,1000.97,20.03,36.43,315.82,313.58,356.77,-43.19
131.91,5/11/98,21:50:50,35.815,-58.461,338.79,370.96,20.29,1001.05,20.17,36.42,325.87,324.2,356.77,-32.58
131.913,5/11/98,21:55:20,35.821,-58.441,350.14,370.96,20.32,1001.26,20.1,36.38,336.89,333.97,356.77,-22.8
131.917,5/11/98,21:59:50,35.827,-58.422,345.48,370.96,20.21,1001.48,20.19,36.35,332.44,332.16,356.77,-24.61
131.928,5/11/98,22:16:24,35.847,-58.349,348.7,-999.99,20.46,1001.45,20.29,36.32,335.49,333.28,-999.99,-999.99
131.931,5/11/98,22:20:50,35.853,-58.33,341.93,-999.99,20.52,1001.36,20.25,36.29,328.96,325.37,-999.99,-999.99
131.934,5/11/98,22:25:20,35.859,-58.31,343.66,-999.99,20.47,1001.48,20.26,36.28,330.65,327.88,-999.99,-999.99
131.937,5/11/98,22:29:50,35.864,-58.291,344.17,-999.99,20.42,1001.54,20.18,36.29,331.21,327.99,-999.99,-999.99
131.949,5/11/98,22:46:22,35.886,-58.219,331.95,-999.99,20.42,1001.55,20.27,36.44,319.41,317.4,-999.99,-999.99
131.952,5/11/98,22:50:50,35.9,-58.208,339.7,-999.99,20.42,1001.52,20.2,36.47,326.89,324.07,-999.99,-999.99
131.955,5/11/98,22:55:20,35.907,-58.191,346.18,-999.99,20.37,1001.61,20.16,36.52,333.18,330.33,-999.99,-999.99
131.958,5/11/98,22:59:50,35.91,-58.17,346.15,-999.99,20.45,1001.57,20.25,36.51,333.09,330.44,-999.99,-999.99
131.97,5/11/98,23:16:24,35.92,-58.095,343.15,370.93,20.23,1001.89,20.04,36.45,330.41,327.93,357.37,-29.44
131.973,5/11/98,23:20:50,35.923,-58.074,341.29,370.93,20.23,1002.08,20.03,36.44,328.68,326.03,357.37,-31.34
131.976,5/11/98,23:25:20,35.926,-58.054,344.22,370.93,20.23,1001.93,19.97,36.42,331.49,327.98,357.37,-29.39
131.979,5/11/98,23:29:50,35.929,-58.033,344.48,370.93,20.17,1002.07,19.86,36.41,331.83,327.65,357.37,-29.72
131.991,5/11/98,23:46:22,35.952,-57.96,348,370.93,19.99,1002.25,19.78,36.42,335.32,332.53,357.37,-24.84
131.994,5/11/98,23:50:50,35.957,-57.94,335.13,370.93,20.03,1002.26,19.82,36.43,322.91,320.2,357.37,-37.17
131.997,5/11/98,23:55:20,35.963,-57.92,339.26,370.93,20.07,1002.39,19.79,36.43,326.95,323.31,357.37,-34.06
132,5/11/98,23:59:50,35.968,-57.9,-999.99,370.93,20.07,1002.42,19.79,36.43,-999.99,-999.99,357.37,-999.99
132.011,5/12/98,0:16:24,35.988,-57.821,-999.99,-999.99,20.08,1002.56,19.81,36.44,-999.99,-999.99,-999.99,-999.99
132.014,5/12/98,0:20:50,35.993,-57.802,-999.99,-999.99,20.08,1002.6,19.82,36.44,-999.99,-999.99,-999.99,-999.99
132.017,5/12/98,0:25:20,35.998,-57.782,-999.99,-999.99,20.09,1002.63,19.82,36.44,-999.99,-999.99,-999.99,-999.99
132.021,5/12/98,0:29:50,36.003,-57.762,-999.99,-999.99,20.09,1002.67,19.82,36.44,-999.99,-999.99,-999.99,-999.99
132.032,5/12/98,0:46:22,36.023,-57.683,-999.99,-999.99,20.1,1002.8,19.84,36.44,-999.99,-999.99,-999.99,-999.99
132.035,5/12/98,0:50:50,36.028,-57.663,-999.99,-999.99,20.1,1002.84,19.85,36.44,-999.99,-999.99,-999.99,-999.99
132.038,5/12/98,0:55:20,36.033,-57.644,-999.99,-999.99,20.1,1002.87,19.85,36.44,-999.99,-999.99,-999.99,-999.99
132.041,5/12/98,0:59:50,36.038,-57.624,-999.99,-999.99,20.11,1002.91,19.85,36.45,-999.99,-999.99,-999.99,-999.99
132.053,5/12/98,1:16:24,36.059,-57.545,-999.99,-999.99,20.12,1003.05,19.87,36.45,-999.99,-999.99,-999.99,-999.99
132.056,5/12/98,1:20:55,36.064,-57.525,337.3,-999.99,20.12,1003.08,19.88,36.45,325.24,322.08,-999.99,-999.99
132.059,5/12/98,1:25:20,36.069,-57.505,-999.99,-999.99,20.11,1003.14,19.87,36.46,-999.99,-999.99,-999.99,-999.99
132.062,5/12/98,1:29:50,36.074,-57.486,333.43,-999.99,20.11,1003.2,19.87,36.46,321.56,318.43,-999.99,-999.99
132.074,5/12/98,1:46:22,36.093,-57.41,336.22,-999.99,20.04,1003.36,19.86,36.45,324.3,322.02,-999.99,-999.99
132.077,5/12/98,1:50:50,36.098,-57.39,332.29,-999.99,20.09,1003.22,19.88,36.45,320.46,317.82,-999.99,-999.99
132.08,5/12/98,1:55:20,36.104,-57.37,333.05,-999.99,20.09,1003.48,19.86,36.44,321.28,318.34,-999.99,-999.99
132.083,5/12/98,1:59:50,36.109,-57.35,337.95,-999.99,20.09,1003.33,19.87,36.44,325.95,323.1,-999.99,-999.99
132.095,5/12/98,2:16:24,36.129,-57.275,334.57,371.58,20.09,1003.5,19.9,36.44,322.74,320.21,358.44,-38.23
132.098,5/12/98,2:20:50,36.134,-57.255,336.26,371.58,20.13,1003.69,19.98,36.45,324.4,322.49,358.44,-35.94
132.101,5/12/98,2:25:20,36.139,-57.235,335.09,371.58,20.22,1003.7,20.05,36.47,323.24,320.98,358.44,-37.45
132.104,5/12/98,2:29:50,36.144,-57.215,333.8,371.58,20.22,1003.68,19.96,36.48,322.03,318.72,358.44,-39.72
132.116,5/12/98,2:46:22,36.163,-57.141,337.69,371.58,20.2,1003.58,19.8,36.46,325.82,320.65,358.44,-37.79
132.119,5/12/98,2:50:50,36.168,-57.121,334.65,371.58,20.05,1003.38,19.87,36.46,322.79,320.48,358.44,-37.95
132.122,5/12/98,2:55:20,36.172,-57.101,329.82,371.58,20.09,1003.47,19.88,36.45,318.16,315.45,358.44,-42.99
132.125,5/12/98,2:59:50,36.177,-57.081,335.81,371.58,20.08,1003.47,19.86,36.44,323.94,321.03,358.44,-37.41
132.136,5/12/98,3:16:24,36.193,-57.012,328.21,371.4,20.01,1003.55,19.83,36.43,316.65,314.34,358.34,-44
132.139,5/12/98,3:20:50,36.195,-57,327.62,371.4,20.05,1003.55,19.84,36.43,316.08,313.41,358.34,-44.93
132.143,5/12/98,3:25:20,36.191,-57,328.85,371.4,20.06,1003.46,19.85,36.42,317.23,314.45,358.34,-43.89
132.146,5/12/98,3:29:50,36.195,-56.989,334.17,371.4,20.04,1003.48,19.86,36.42,322.37,319.96,358.34,-38.38
132.157,5/12/98,3:46:22,36.215,-56.921,330.78,371.4,20.04,1003.62,19.85,36.42,319.15,316.67,358.34,-41.67
132.16,5/12/98,3:50:50,36.221,-56.902,330.43,371.4,20.04,1003.71,19.82,36.42,318.85,316.04,358.34,-42.3